Regional Weather Roundup
Issued by NWS Little Rock, AR

Home | Current Version | Previous Version | Text Only | Print | Product List | Glossary Off
Versions: 1 2 3 4 5 6 7 8 9 10 11 12 13 14 15 16 17 18 19 20 21 22 23 24 25 26 27 28 29 30 31 32 33 34 35 36 37 38 39 40 41 42 43 44 45 46 47 48 49 50

104
ASUS44 KLZK 231005
RWRLZK

WEATHER ROUNDUP FOR ARKANSAS
NATIONAL WEATHER SERVICE LITTLE ROCK AR
500 AM CDT FRI JUN 23 2017

NOTE: "FAIR" INDICATES FEW OR NO CLOUDS BELOW 12,000 FEET WITH NO
SIGNIFICANT WEATHER AND/OR OBSTRUCTIONS TO VISIBILITY.

ARZ001-003-010-029-231100-
NORTHWEST ARKANSAS

CITY           SKY/WX    TMP DP  RH WIND       PRES   REMARKS
FAYETTEVILLE   CLEAR     67  67 100 CALM      29.72F
FORT SMITH     CLEAR     74  73  97 W5        29.68F
HARRISON       MOCLDY    71  71 100 W3        29.71F
BENTONVILLE    CLEAR     70  66  88 CALM      29.73S
ROGERS         CLEAR     70  69  97 CALM      29.73S FOG
SILOAM SPGS    PTCLDY    68  66  94 CALM      29.72S
HIGHFILL       CLEAR     69  68  96 CALM      29.72S
$$

ARZ004-005-016-231100-
NORTH CENTRAL ARKANSAS

CITY           SKY/WX    TMP DP  RH WIND       PRES   REMARKS
BATESVILLE     CLOUDY    75  73  94 NE5       29.63F
FLIPPIN        CLOUDY    73  70  88 N3        29.66R
MTN HOME       CLOUDY    73  73 100 N5        29.68S
$$

ARZ040-041-231100-
WEST CENTRAL ARKANSAS

CITY           SKY/WX    TMP DP  RH WIND       PRES   REMARKS
MENA           CLOUDY    73  72  94 W5        29.72F
MOUNT IDA      CLOUDY    73  70  90 CALM      29.67S
$$

ARZ009-017-025-026-028-231100-
NORTHEAST ARKANSAS

CITY           SKY/WX    TMP DP  RH WIND       PRES   REMARKS
CORNING        LGT RAIN  75  75 100 SE3       29.68S
JONESBORO      RAIN      74  74 100 E8        29.64F FOG
WALNUT RIDGE   CLOUDY    75  72  88 SE7       29.66R
BLYTHEVILLE    LGT RAIN  78  74  87 SE10      29.69F
$$

ARZ022-023-033-042-044-231100-
CENTRAL ARKANSAS

CITY           SKY/WX    TMP DP  RH WIND       PRES   REMARKS
LITTLE ROCK    LGT RAIN  75  75 100 NW7       29.62R FOG
N LITTLE ROCK    N/A     74  74  97 CALM      29.61R
JACKSONVILLE   DRIZZLE   75  75 100 W3        29.61R
CONWAY           N/A     77  75  94 NW10      29.62R
SEARCY         CLOUDY    75  75 100 CALM      29.62F
HOT SPRINGS    CLOUDY    75  74  96 W6        29.68R
RUSSELLVILLE   CLOUDY    76  74  93 W6        29.65S
CLINTON        CLOUDY    75  73  94 VRB5      29.65S
$$

ARZ036-231100-
EAST ARKANSAS

CITY           SKY/WX    TMP DP  RH WIND       PRES   REMARKS
WEST MEMPHIS   LGT RAIN  75  74  96 S22G32    29.65F FOG
$$

ARZ050-053-066-070-073-231100-
SOUTHWEST ARKANSAS

CITY           SKY/WX    TMP DP  RH WIND       PRES   REMARKS
ARKADELPHIA    FAIR      75  74  96 W6        29.69R
CAMDEN         CLOUDY    77  73  88 SW6       29.70R
TEXARKANA      CLOUDY    76  76 100 SW6       29.72S
EL DORADO      LGT RAIN  77  75  93 SW9       29.72S
DE QUEEN       CLOUDY    73  73 100 CALM      29.69R
$$

ARZ056-057-069-231100-
SOUTHEAST ARKANSAS

CITY           SKY/WX    TMP DP  RH WIND       PRES   REMARKS
PINE BLUFF     HVY RAIN  76  75  97 SW12G22   29.64R FOG
STUTTGART      CLOUDY   N/A N/A N/A S8        29.59S
MONTICELLO     LGT RAIN  76  73  91 S20G30    29.68R

$$






USA.gov is the U.S. government's official web portal to all federal, state and local government web resources and services.